Location: Charlottesville
(38.0290°N, 78.4770°W)
Time: 19:49:54
(UTC-05:00)

XW-2F - Visible Passes

Search period start: 15 December 2018 00:00
Search period end: 25 December 2018 00:00
Orbit: 503 x 526 km, 97.5° (Epoch: 15 December)

Date Brightness Start Highest point End Pass type
(mag) Time Alt. Az. Time Alt. Az. Time Alt. Az.
15 Dec ? 06:19:25 10° NNE 06:23:08 85° ESE 06:26:51 10° S visible
15 Dec ? 18:33:03 10° SW 18:35:25 16° W 18:37:48 10° NW visible
16 Dec ? 06:04:31 10° NNE 06:08:08 51° E 06:11:45 10° S visible
16 Dec ? 18:17:15 10° SSW 18:20:20 24° W 18:23:26 10° NW visible
17 Dec ? 05:49:44 10° NNE 05:53:06 32° E 05:56:27 10° SSE visible
17 Dec ? 18:01:47 10° SSW 18:05:17 38° W 18:08:47 10° NNW visible
18 Dec ? 05:35:10 10° NE 05:38:02 21° E 05:40:53 10° SE visible
18 Dec ? 17:46:34 10° S 17:50:15 61° W 17:53:57 10° NNW visible
19 Dec ? 05:20:58 10° ENE 05:22:55 14° E 05:24:52 10° SE visible
19 Dec ? 06:53:42 10° N 06:57:03 33° WNW 07:00:24 10° SW visible
19 Dec ? 17:31:32 10° SSE 17:35:15 82° ENE 17:38:59 10° N visible
20 Dec ? 06:38:30 10° N 06:42:07 52° WNW 06:45:44 10° SSW visible
21 Dec ? 06:23:24 10° N 06:27:08 85° WNW 06:30:51 10° SSW visible
21 Dec ? 18:37:24 10° SW 18:39:27 14° W 18:41:30 10° WNW visible
22 Dec ? 06:08:27 10° NNE 06:12:08 59° E 06:15:48 10° S visible
22 Dec ? 18:21:26 10° SSW 18:24:21 22° W 18:27:16 10° NW visible
23 Dec ? 05:53:37 10° NNE 05:57:05 36° E 06:00:33 10° SSE visible
23 Dec ? 18:05:53 10° SSW 18:09:16 33° W 18:12:39 10° NNW visible
24 Dec ? 05:38:58 10° NE 05:42:01 23° E 05:45:03 10° SSE visible
24 Dec ? 17:50:36 10° S 17:54:13 53° W 17:57:52 10° NNW visible
